ROBUSTA-1E (ENSO)

Last updated on Thu Nov 21 2024 00:03:40 GMT+0000 (Coordinated Universal Time)

1 58470U 23185J 24325.55411010 .00038627 00000+0 11694-2 0 9994 2 58470 97.4054 31.4642 0010819 86.1013 274.1466 15.34017060 54010
UTC large
Height (km)
Speed (km/s)
/
Latitude / Longitude
Inclination (degrees)
Orbital Period (minutes)
Azimuth
Elevation
Range (km)
Doppler Factor

Next 0 passes for location: London (51.5072 / 0.1276)

Sorry there are no passes over London.